{"data":{"norad_id":56458,"epoch":"2026-05-25T04:36:31.377312Z","epoch_age_seconds":48558,"freshness":"FRESH","line1":"1 56458U 23064L   26145.19202983  .00000149  00000+0  20290-4 0  9995","line2":"2 56458  69.9988 311.6330 0002705 269.6753  90.4096 14.98330906166709","mean_motion":14.98330906,"eccentricity":0.0002705,"inclination_deg":69.9988,"raan_deg":311.633,"arg_perigee_deg":269.6753,"mean_anomaly_deg":90.4096,"bstar":2.029e-5,"rev_number":16670,"period_min":96.106941012401,"perigee_km":570.17306279643,"apogee_km":573.9331156347,"semimajor_km":6950.1900892156,"source":"CELESTRAK","updated_at":"2026-05-25T13:38:18.068078Z"}}